[[{"header":{"parameterUnit":"m.s-1","parameterCategory":1,"la1":30.2991,"la2":30.254,"lo1":-89.0895,"lo2":-89.0444,"dy":0.0017,"dx":0.0017,"nx":28,"ny":28,"refTime":"2024-12-01T03:00:00:Z","depth":0,"parameterNumber":2,"parameterNumberName":"U-component_of_WINDS"},"data":[0,0,0,0,0,0,0,0,0,0,0,0,0,0,0,0,0,0,0,0,0,0,0,0,0,0,0,0,0,0,0,0,0,0,0,0,0,0,0,0,0,0,0,0,0,0,0,0,0,0,0,0,0,0,0,0,0,0,3.1517,3.1518,0,3.1651,3.1653,3.1654,3.1625,3.1622,3.162,3.1617,3.1756,3.1762,3.1768,0,0,0,0,0,0,0,0,0,0,0,0,0,3.1236,3.1242,3.1517,3.1519,3.152,3.1651,3.1653,3.1655,3.1625,3.1622,3.1619,3.1616,3.1754,3.1761,3.1768,0,0,0,0,0,0,0,0,0,0,0,0,0,3.1363,3.1243,3.1517,3.1521,3.1523,3.1651,3.1653,3.1655,3.1626,3.1622,3.1618,3.1615,3.1752,3.1761,3.1769,3.1901,0,0,3.1797,3.1801,0,0,0,0,0,0,0,0,3.1356,3.1373,3.1519,3.1521,3.1523,3.1617,3.1605,3.1738,3.1627,3.1587,3.1617,3.1613,3.1713,3.1725,3.1759,3.1908,3.1914,3.1798,3.1803,3.1807,3.181,0,0,0,0,0,0,0,3.1347,3.1368,3.157,3.1521,3.1524,3.1517,3.1531,3.163,3.167,3.159,3.1588,3.1604,3.1714,3.175,3.1762,3.1916,3.1798,3.1806,3.1811,3.1815,3.218,3.2184,0,0,0,0,0,0,3.1336,3.136,3.1566,3.1574,3.1429,3.1525,3.1541,3.1591,3.1668,3.1677,3.1608,3.1603,3.1736,3.1751,3.1766,3.1925,3.1807,3.1816,3.1821,3.2176,3.2181,3.2185,0,0,0,0,0,0,3.133,3.1355,3.156,3.1467,3.1492,3.1534,3.1591,3.1596,3.1632,3.1682,3.1689,3.1637,3.1734,3.1754,3.1868,3.193,3.182,3.1828,3.2171,3.2177,3.2183,3.2245,0,0,0,0,0,0,3.1322,3.1353,3.1403,3.1468,3.1498,3.1659,3.1595,3.1601,3.1648,3.1642,3.1711,3.1719,3.1732,3.1854,3.1877,3.194,3.1835,3.2165,3.2174,3.2181,3.2237,3.2252,3.2265,0,0,0,0,0,3.1313,3.1415,3.1406,3.1431,3.1561,3.1663,3.168,3.1692,3.1653,3.1703,3.1736,3.1717,3.192,3.1866,3.1891,3.1959,3.2161,3.2171,3.2181,3.2231,3.2249,3.2265,0,0,0,0,0,0,3.1356,3.1424,3.1414,3.1541,3.1596,3.1658,3.1722,3.1712,3.178,3.1772,3.1786,3.1801,3.1918,3.195,3.1889,3.209,3.2035,3.205,3.2065,3.2083,3.2096,3.2086,3.1843,0,0,0,0,0,3.1381,3.1458,3.1512,3.1619,3.1647,3.168,3.1725,3.173,3.1788,3.1812,3.1852,3.191,3.1986,3.2036,3.211,3.2242,3.2257,3.2301,3.2315,3.2326,3.2339,3.2411,3.2431,3.2217,3.2217,3.2217,0,0,3.1432,3.1478,3.1526,3.1629,3.1673,3.1752,3.17,3.1786,3.1845,3.1825,3.1935,3.1967,3.2032,3.2156,3.2213,3.2186,3.2401,3.2338,3.2347,3.2353,3.2423,3.2443,3.2461,3.2223,3.2222,3.2221,0,0,3.1565,3.1609,3.1702,3.1747,3.1813,3.1835,3.1857,3.1921,3.1941,3.2052,3.2038,3.2109,3.2241,3.2288,3.2329,3.2482,3.2467,3.2505,3.2578,3.2648,3.2665,3.268,3.2734,3.2753,3.2518,3.2518,3.2518,0,3.1621,3.1739,3.1751,3.1839,3.1885,3.187,3.1965,3.2008,3.2096,3.2128,3.2097,3.2262,3.2305,3.244,3.2477,3.2511,3.2537,3.2497,3.2662,3.2677,3.2691,3.2743,3.2763,3.2522,3.2522,3.2521,3.2521,0,3.1804,3.1886,3.1954,3.2038,3.2092,3.2183,3.2209,3.2262,3.2263,3.2288,3.2401,3.2452,3.2535,3.2568,3.257,3.2703,3.2685,3.2658,3.2603,3.2715,3.2764,3.2784,3.2528,3.2526,3.2525,3.2524,0,0,3.1967,3.2058,3.2082,3.212,3.2193,3.2258,3.2349,3.243,3.2475,3.2536,3.2612,3.2725,3.2701,3.2747,3.2755,3.2817,3.2934,3.2782,3.2784,3.2808,3.3084,3.3102,3.3125,3.2925,3.2929,3.2932,3.3078,0,3.2107,3.2266,3.228,3.2423,3.2499,3.2487,3.2566,3.262,3.2645,3.2715,3.2743,3.2822,3.2785,3.2813,3.2874,3.2907,3.2989,3.2897,3.2996,3.3,3.2979,3.3151,3.3171,3.3306,3.3097,3.31,3.3103,0,3.229,3.2357,3.2507,3.257,3.2602,3.2673,3.2749,3.2815,3.2876,3.2891,3.2944,3.2943,3.3036,3.2978,3.3108,3.3044,3.3086,3.3109,3.3114,3.3123,3.3057,3.3163,3.3349,3.3369,3.3133,3.313,3.3128,0,3.2394,3.2521,3.2627,3.2661,3.2736,3.2786,3.282,3.2878,3.2926,3.2992,3.3024,3.3101,3.3143,3.3203,3.3223,3.3179,3.3351,3.3295,3.3366,3.3365,3.3402,3.3399,3.3596,3.3431,3.343,3.343,3.343,0,3.2547,3.264,3.2675,3.274,3.2843,3.2859,3.2961,3.2993,3.3044,3.3115,3.311,3.3178,3.3201,3.3272,3.3289,3.3393,3.3413,3.3427,3.343,3.3427,3.3425,3.3453,3.3444,3.3435,3.3434,3.3433,3.3432,0,3.268,3.2707,3.2822,3.2884,3.2902,3.2976,3.3029,3.3093,3.3118,3.3209,3.3231,3.3271,3.3355,3.3381,3.3482,3.3494,3.3615,3.3611,3.3594,3.3595,3.3663,3.3656,3.3885,3.3915,3.3731,3.3733,3.3734,0,3.2775,3.2846,3.2916,3.2963,3.2999,3.3076,3.3125,3.3144,3.3195,3.327,3.3325,3.3408,3.3475,3.361,3.3648,3.3726,3.3722,3.3797,3.3734,3.3728,3.3722,3.3717,3.3724,3.3808,3.381,3.3812,3.3813,0,3.2942,3.2952,3.3022,3.3098,3.3157,3.3218,3.3276,3.3315,3.3343,3.3401,3.3486,3.3539,3.3642,3.3725,3.3804,3.3839,3.3831,3.3833,3.3853,3.385,3.3837,3.3844,3.3626,3.3827,3.3826,3.3825,3.3824,3.3823,3.3058,3.312,3.3179,3.3258,3.3304,3.3359,3.3422,3.3455,3.3526,3.3611,3.3619,3.3711,3.3771,3.3876,3.3916,3.3989,3.3968,3.3997,3.4005,3.4011,3.4016,3.3827,3.4004,3.4003,3.4003,3.4003,3.4003,0,3.3223,3.3261,3.3334,3.3415,3.3478,3.3465,3.3529,3.3582,3.3663,3.372,3.3786,3.3884,3.3965,3.401,3.409,3.414,3.4138,3.416,3.4156,3.4164,3.4031,3.4005,3.416,3.416,3.416,3.416,3.416,3.416,3.3317,3.3421,3.3438,3.3566,3.3603,3.3693,3.3731,3.3782,3.3826,3.3937,3.4003,3.4032,3.4084,3.4168,3.4241,3.4252,3.4281,3.4306,3.4315,3.419,3.4173,3.4158,3.4133,3.4312,3.4313,3.4441,3.4442,3.4443]},{"header":{"parameterUnit":"m.s-1","parameterCategory":1,"la1":30.2991,"la2":30.254,"lo1":-89.0895,"lo2":-89.0444,"dy":0.0017,"dx":0.0017,"nx":28,"ny":28,"refTime":"2024-12-01T03:00:00:Z","depth":0,"parameterNumber":3,"parameterNumberName":"V-component_of_WINDS"},"data":[0,0,0,0,0,0,0,0,0,0,0,0,0,0,0,0,0,0,0,0,0,0,0,0,0,0,0,0,0,0,0,0,0,0,0,0,0,0,0,0,0,0,0,0,0,0,0,0,0,0,0,0,0,0,0,0,0,0,-2.7826,-2.7828,0,-2.7953,-2.7954,-2.7956,-2.7959,-2.7957,-2.7956,-2.7954,-2.8082,-2.8087,-2.8092,0,0,0,0,0,0,0,0,0,0,0,0,0,-2.7586,-2.759,-2.7826,-2.7828,-2.7829,-2.7952,-2.7954,-2.7956,-2.7959,-2.7957,-2.7955,-2.7954,-2.8081,-2.8087,-2.8092,0,0,0,0,0,0,0,0,0,0,0,0,0,-2.7699,-2.7592,-2.7826,-2.7846,-2.7849,-2.7952,-2.7954,-2.7956,-2.796,-2.7957,-2.7955,-2.7953,-2.8079,-2.8086,-2.8093,-2.8184,0,0,-2.8115,-2.8119,0,0,0,0,0,0,0,0,-2.7693,-2.7708,-2.7841,-2.7845,-2.7848,-2.7938,-2.7916,-2.8033,-2.796,-2.7918,-2.7954,-2.7952,-2.8036,-2.8047,-2.8075,-2.819,-2.8196,-2.8116,-2.812,-2.8124,-2.8126,0,0,0,0,0,0,0,-2.7685,-2.7702,-2.7876,-2.7843,-2.7848,-2.7848,-2.7861,-2.7939,-2.7988,-2.7921,-2.7922,-2.7937,-2.8037,-2.8068,-2.8078,-2.8198,-2.8116,-2.8122,-2.8127,-2.813,-2.8393,-2.8395,0,0,0,0,0,0,-2.7673,-2.7696,-2.7872,-2.788,-2.7763,-2.7854,-2.7869,-2.7911,-2.7987,-2.7997,-2.7939,-2.7936,-2.8057,-2.807,-2.8083,-2.8194,-2.8124,-2.813,-2.8135,-2.839,-2.8393,-2.8396,0,0,0,0,0,0,-2.7668,-2.7689,-2.7867,-2.7788,-2.7811,-2.7861,-2.7908,-2.7915,-2.7946,-2.8001,-2.8009,-2.7961,-2.8056,-2.8073,-2.8159,-2.8198,-2.8134,-2.814,-2.8387,-2.8391,-2.8395,-2.8417,0,0,0,0,0,0,-2.7661,-2.7687,-2.7723,-2.7789,-2.7815,-2.7942,-2.791,-2.7919,-2.7959,-2.7957,-2.8024,-2.8033,-2.8055,-2.8148,-2.8166,-2.8207,-2.8146,-2.8384,-2.8389,-2.8394,-2.8413,-2.8421,-2.8428,0,0,0,0,0,-2.7653,-2.7724,-2.7725,-2.7746,-2.7861,-2.7944,-2.7959,-2.7984,-2.7962,-2.7998,-2.8033,-2.8031,-2.8191,-2.8157,-2.8177,-2.8221,-2.8381,-2.8387,-2.8393,-2.841,-2.842,-2.8428,0,0,0,0,0,0,-2.7661,-2.7733,-2.7734,-2.783,-2.7881,-2.7944,-2.799,-2.7994,-2.8052,-2.8047,-2.8075,-2.809,-2.8176,-2.8207,-2.8168,-2.8313,-2.8284,-2.8294,-2.8289,-2.8299,-2.8307,-2.8297,-2.8152,0,0,0,0,0,-2.7674,-2.7736,-2.7795,-2.7873,-2.7899,-2.794,-2.7977,-2.7992,-2.8046,-2.8067,-2.8109,-2.816,-2.8222,-2.8263,-2.8323,-2.8418,-2.8432,-2.8458,-2.8466,-2.8472,-2.848,-2.8531,-2.8543,-2.8416,-2.8416,-2.8415,0,0,-2.7701,-2.7748,-2.7785,-2.7876,-2.7917,-2.798,-2.7958,-2.8026,-2.8073,-2.8077,-2.8161,-2.8193,-2.8253,-2.8344,-2.8386,-2.8372,-2.8518,-2.8479,-2.8483,-2.8489,-2.8538,-2.855,-2.8561,-2.842,-2.8419,-2.8418,0,0,-2.7782,-2.7825,-2.7894,-2.7935,-2.7998,-2.8025,-2.8042,-2.8105,-2.8127,-2.8212,-2.8216,-2.8272,-2.8379,-2.842,-2.8456,-2.8552,-2.8552,-2.8571,-2.8611,-2.8661,-2.8671,-2.868,-2.8713,-2.8725,-2.858,-2.858,-2.858,0,-2.7808,-2.7903,-2.7929,-2.7996,-2.8036,-2.8043,-2.8113,-2.8152,-2.8231,-2.8258,-2.8242,-2.8376,-2.8416,-2.8516,-2.854,-2.8569,-2.8588,-2.8563,-2.8667,-2.8676,-2.8685,-2.8717,-2.873,-2.8581,-2.8581,-2.8581,-2.8581,0,-2.7931,-2.7997,-2.8045,-2.8121,-2.8166,-2.8235,-2.827,-2.8312,-2.8323,-2.8351,-2.8436,-2.8486,-2.8555,-2.8581,-2.8592,-2.8682,-2.8672,-2.8661,-2.8632,-2.8699,-2.8729,-2.8742,-2.8584,-2.8583,-2.8583,-2.8582,0,0,-2.8021,-2.811,-2.8127,-2.8161,-2.8231,-2.8282,-2.8351,-2.8419,-2.8454,-2.8509,-2.8566,-2.8656,-2.8646,-2.8686,-2.8702,-2.8746,-2.8818,-2.873,-2.8732,-2.8744,-2.8919,-2.8925,-2.8939,-2.8819,-2.8821,-2.8823,-2.8913,0,-2.8109,-2.823,-2.8255,-2.836,-2.8421,-2.8429,-2.8488,-2.8537,-2.8565,-2.862,-2.8651,-2.8714,-2.8698,-2.8722,-2.8766,-2.88,-2.8853,-2.8794,-2.8871,-2.8873,-2.8855,-2.8955,-2.8963,-2.9046,-2.8926,-2.8928,-2.8929,0,-2.8228,-2.8285,-2.8396,-2.8457,-2.8483,-2.8536,-2.86,-2.8653,-2.8708,-2.8726,-2.877,-2.8781,-2.8851,-2.882,-2.8916,-2.8875,-2.8908,-2.893,-2.8934,-2.8941,-2.8904,-2.8964,-2.9073,-2.9085,-2.8948,-2.8947,-2.8945,0,-2.828,-2.8385,-2.8465,-2.8494,-2.8568,-2.8604,-2.8636,-2.8689,-2.8729,-2.8785,-2.881,-2.8874,-2.8908,-2.8957,-2.8984,-2.8959,-2.9078,-2.9049,-2.9094,-2.9093,-2.9118,-2.9116,-2.9232,-2.9141,-2.9141,-2.9141,-2.914,0,-2.8376,-2.8443,-2.849,-2.8539,-2.8614,-2.8642,-2.8715,-2.8747,-2.8794,-2.8849,-2.886,-2.891,-2.8944,-2.9,-2.9022,-2.9097,-2.9113,-2.9128,-2.9133,-2.9127,-2.9125,-2.9148,-2.9143,-2.9144,-2.9143,-2.9142,-2.9142,0,-2.8447,-2.8481,-2.8568,-2.8631,-2.8648,-2.87,-2.8753,-2.8801,-2.8829,-2.8898,-2.8916,-2.896,-2.9026,-2.9058,-2.914,-2.9154,-2.924,-2.9242,-2.9221,-2.9223,-2.9265,-2.926,-2.9399,-2.9419,-2.9316,-2.9317,-2.9318,0,-2.8505,-2.8557,-2.8624,-2.8662,-2.8695,-2.8755,-2.8795,-2.8825,-2.8866,-2.8932,-2.8971,-2.9037,-2.9092,-2.9196,-2.9235,-2.9298,-2.93,-2.9345,-2.931,-2.9301,-2.9299,-2.9296,-2.93,-2.9351,-2.9352,-2.9353,-2.9353,0,-2.8604,-2.8618,-2.8675,-2.8739,-2.8786,-2.8838,-2.8888,-2.8918,-2.8955,-2.9001,-2.9068,-2.911,-2.9194,-2.9259,-2.9324,-2.9356,-2.9361,-2.9364,-2.9377,-2.9371,-2.9356,-2.9364,-2.9237,-2.9361,-2.936,-2.9359,-2.9359,-2.9359,-2.867,-2.8716,-2.877,-2.8834,-2.8875,-2.8921,-2.8969,-2.9003,-2.906,-2.913,-2.9144,-2.9215,-2.9267,-2.9355,-2.939,-2.9445,-2.9435,-2.9455,-2.946,-2.9464,-2.9465,-2.9349,-2.9457,-2.9457,-2.9457,-2.9457,-2.9457,0,-2.8768,-2.8803,-2.8861,-2.8932,-2.8981,-2.8982,-2.9037,-2.9078,-2.9141,-2.919,-2.9244,-2.9321,-2.9384,-2.9428,-2.9492,-2.9527,-2.9531,-2.9543,-2.954,-2.9547,-2.9471,-2.9453,-2.9539,-2.9539,-2.9539,-2.9539,-2.9539,-2.9539,-2.8825,-2.8903,-2.8923,-2.9021,-2.9056,-2.9126,-2.9157,-2.92,-2.9239,-2.9324,-2.9377,-2.9405,-2.9452,-2.952,-2.9577,-2.9588,-2.9611,-2.9623,-2.9634,-2.9562,-2.9553,-2.9544,-2.9527,-2.9628,-2.9628,-2.9705,-2.9706,-2.9706]}]]